• In Hungary
  • List of Countries
  • For 7 days
  • Water Temperature
  • Satellite Maps
  • Weather Map
  • News
  • Weather Widgets
  • user-avatar
    Login

    Hourly Weather Mezheg

    Today, 24 May, Thursday

    Time Temperature Precipitation Wind Pressure Humidity
    00:00 +12°C° 0.4 mm 3 mps 752 mmHg 89%
    01:00 +11°C° 0 mm 4 mps 753 mmHg 87%
    02:00 +8°C° 0 mm 4 mps 754 mmHg 84%
    03:00 +6°C° 0 mm 4 mps 755 mmHg 82%
    04:00 +6°C° 0 mm 4 mps 755 mmHg 77%
    05:00 +6°C° 0 mm 4 mps 756 mmHg 73%
    06:00 +6°C° 0 mm 4 mps 757 mmHg 68%
    07:00 +7°C° 0 mm 4 mps 757 mmHg 60%
    08:00 +8°C° 0 mm 4 mps 757 mmHg 52%
    09:00 +10°C° 0 mm 4 mps 758 mmHg 44%
    10:00 +11°C° 0 mm 4 mps 758 mmHg 41%
    11:00 +12°C° 0 mm 4 mps 758 mmHg 39%
    12:00 +12°C° 0 mm 4 mps 758 mmHg 36%
    13:00 +12°C° 0 mm 4 mps 758 mmHg 36%
    14:00 +12°C° 0 mm 5 mps 758 mmHg 36%
    15:00 +10°C° 0 mm 5 mps 758 mmHg 37%
    16:00 +11°C° 0 mm 4 mps 759 mmHg 38%
    17:00 +10°C° 0 mm 4 mps 759 mmHg 40%
    18:00 +8°C° 0 mm 4 mps 759 mmHg 41%
    19:00 +8°C° 0 mm 3 mps 759 mmHg 44%
    20:00 +7°C° 0 mm 3 mps 759 mmHg 47%
    21:00 +6°C° 0 mm 2 mps 759 mmHg 51%
    22:00 +6°C° 0 mm 2 mps 759 mmHg 54%
    23:00 +5°C° 0 mm 2 mps 760 mmHg 57%

    Tomorrow, 25 May, Friday

    Time Temperature Precipitation Wind Pressure Humidity
    00:00 +4°C° 0 mm 3 mps 760 mmHg 60%
    01:00 +3°C° 0 mm 3 mps 760 mmHg 63%
    02:00 +2°C° 0 mm 3 mps 760 mmHg 67%
    03:00 +3°C° 0 mm 2 mps 761 mmHg 70%
    04:00 +2°C° 0 mm 3 mps 761 mmHg 64%
    05:00 +3°C° 0 mm 3 mps 761 mmHg 58%
    06:00 +3°C° 0 mm 4 mps 761 mmHg 52%
    07:00 +4°C° 0 mm 4 mps 762 mmHg 48%
    08:00 +5°C° 0 mm 4 mps 762 mmHg 45%
    09:00 +6°C° 0 mm 4 mps 762 mmHg 41%
    10:00 +7°C° 0 mm 4 mps 762 mmHg 38%
    11:00 +8°C° 0 mm 4 mps 762 mmHg 35%
    12:00 +10°C° 0 mm 4 mps 762 mmHg 32%
    13:00 +11°C° 0 mm 4 mps 762 mmHg 31%
    14:00 +11°C° 0 mm 4 mps 762 mmHg 30%
    15:00 +12°C° 0 mm 4 mps 762 mmHg 29%
    16:00 +12°C° 0 mm 3 mps 762 mmHg 31%
    17:00 +12°C° 0 mm 3 mps 762 mmHg 32%
    18:00 +12°C° 0 mm 3 mps 762 mmHg 34%
    19:00 +10°C° 0 mm 2 mps 762 mmHg 41%
    20:00 +8°C° 0 mm 2 mps 763 mmHg 49%
    21:00 +8°C° 0 mm 1 mps 763 mmHg 56%
    22:00 +7°C° 0 mm 1 mps 763 mmHg 59%
    23:00 +7°C° 0 mm 1 mps 763 mmHg 62%

    Day after tomorrow, 26 May, Saturday

    Time Temperature Precipitation Wind Pressure Humidity
    00:00 +6°C° 0 mm 2 mps 763 mmHg 64%
    01:00 +6°C° 0 mm 2 mps 763 mmHg 64%
    02:00 +6°C° 0 mm 2 mps 763 mmHg 64%
    03:00 +6°C° 0 mm 2 mps 763 mmHg 64%
    04:00 +7°C° 0 mm 2 mps 763 mmHg 59%
    05:00 +9°C° 0 mm 3 mps 762 mmHg 53%
    06:00 +11°C° 0 mm 3 mps 762 mmHg 48%
    07:00 +12°C° 0 mm 3 mps 762 mmHg 45%
    08:00 +14°C° 0 mm 3 mps 762 mmHg 42%
    09:00 +17°C° 0 mm 3 mps 761 mmHg 39%
    10:00 +18°C° 0 mm 3 mps 761 mmHg 37%
    11:00 +19°C° 0 mm 3 mps 760 mmHg 35%
    12:00 +21°C° 0 mm 3 mps 759 mmHg 32%
    13:00 +21°C° 0 mm 3 mps 759 mmHg 32%
    14:00 +22°C° 0 mm 3 mps 758 mmHg 31%
    15:00 +23°C° 0 mm 4 mps 758 mmHg 30%
    16:00 +22°C° 0 mm 3 mps 758 mmHg 35%
    17:00 +23°C° 0 mm 2 mps 757 mmHg 39%
    18:00 +21°C° 0 mm 2 mps 757 mmHg 43%
    19:00 +19°C° 0 mm 2 mps 757 mmHg 47%
    20:00 +19°C° 0 mm 1 mps 757 mmHg 51%
    21:00 +16°C° 0 mm 1 mps 757 mmHg 55%
    22:00 +15°C° 0 mm 2 mps 757 mmHg 57%
    23:00 +14°C° 0 mm 2 mps 757 mmHg 59%

    27 May, Sunday

    Time Temperature Precipitation Wind Pressure Humidity
    00:00 +13°C° 0 mm 2 mps 757 mmHg 61%
    01:00 +12°C° 0 mm 2 mps 757 mmHg 64%
    02:00 +11°C° 0 mm 1 mps 757 mmHg 68%
    03:00 +10°C° 0 mm 1 mps 756 mmHg 71%
    04:00 +10°C° 0.4 mm 1 mps 756 mmHg 73%
    05:00 +9°C° 0.4 mm 2 mps 755 mmHg 75%
    06:00 +9°C° 0.4 mm 2 mps 754 mmHg 77%
    07:00 +10°C° 0.3 mm 2 mps 754 mmHg 77%
    08:00 +12°C° 0.3 mm 2 mps 753 mmHg 77%
    09:00 +11°C° 0.3 mm 3 mps 753 mmHg 78%
    10:00 +12°C° 0.2 mm 4 mps 753 mmHg 69%
    11:00 +13°C° 0.2 mm 5 mps 753 mmHg 61%
    12:00 +14°C° 0.2 mm 6 mps 753 mmHg 52%
    13:00 +14°C° 0.2 mm 6 mps 753 mmHg 47%
    14:00 +14°C° 0.2 mm 6 mps 754 mmHg 42%
    15:00 +15°C° 0.2 mm 6 mps 754 mmHg 38%
    16:00 +14°C° 0 mm 6 mps 754 mmHg 39%
    17:00 +11°C° 0 mm 6 mps 754 mmHg 39%
    18:00 +10°C° 0 mm 6 mps 755 mmHg 40%
    19:00 +9°C° 0 mm 5 mps 755 mmHg 47%
    20:00 +7°C° 0 mm 4 mps 756 mmHg 53%
    21:00 +7°C° 0 mm 3 mps 756 mmHg 59%
    22:00 +5°C° 0 mm 3 mps 756 mmHg 60%
    23:00 +4°C° 0 mm 3 mps 757 mmHg 62%

    28 May, Monday

    Time Temperature Precipitation Wind Pressure Humidity
    00:00 +3°C° 0 mm 3 mps 757 mmHg 63%
    01:00 +3°C° 0 mm 3 mps 758 mmHg 64%
    02:00 +1°C° 0 mm 4 mps 758 mmHg 65%
    03:00 +1°C° 0 mm 4 mps 758 mmHg 66%
    04:00 +1°C° 0 mm 4 mps 758 mmHg 61%
    05:00 +3°C° 0 mm 4 mps 759 mmHg 57%
    06:00 +2°C° 0 mm 5 mps 759 mmHg 53%
    07:00 +2°C° 0 mm 5 mps 759 mmHg 51%
    08:00 +3°C° 0 mm 5 mps 759 mmHg 49%
    09:00 +3°C° 0 mm 5 mps 760 mmHg 47%
    10:00 +5°C° 0 mm 5 mps 760 mmHg 45%
    11:00 +6°C° 0 mm 5 mps 760 mmHg 42%
    12:00 +7°C° 0 mm 5 mps 759 mmHg 39%
    13:00 +8°C° 0 mm 5 mps 759 mmHg 39%
    14:00 +8°C° 0 mm 5 mps 759 mmHg 39%
    15:00 +10°C° 0 mm 4 mps 759 mmHg 38%
    16:00 +8°C° 0 mm 4 mps 758 mmHg 42%
    17:00 +9°C° 0 mm 3 mps 758 mmHg 45%
    18:00 +9°C° 0 mm 3 mps 757 mmHg 48%
    19:00 +8°C° 0.2 mm 2 mps 757 mmHg 58%
    20:00 +7°C° 0.2 mm 2 mps 757 mmHg 68%
    21:00 +7°C° 0.2 mm 1 mps 756 mmHg 78%
    22:00 +7°C° 0.2 mm 1 mps 756 mmHg 83%
    23:00 +6°C° 0.2 mm 2 mps 756 mmHg 87%

    29 May, Tuesday

    Time Temperature Precipitation Wind Pressure Humidity
    00:00 +5°C° 0.2 mm 2 mps 755 mmHg 92%
    01:00 +5°C° 0.1 mm 2 mps 755 mmHg 92%
    02:00 +5°C° 0.1 mm 2 mps 755 mmHg 92%
    03:00 +4°C° 0.1 mm 3 mps 755 mmHg 93%
    04:00 +4°C° 0.1 mm 3 mps 755 mmHg 91%
    05:00 +5°C° 0.1 mm 3 mps 755 mmHg 89%
    06:00 +5°C° 0.1 mm 4 mps 754 mmHg 87%
    07:00 +5°C° 0.1 mm 4 mps 754 mmHg 83%
    08:00 +6°C° 0.1 mm 4 mps 754 mmHg 79%
    09:00 +7°C° 0.1 mm 4 mps 754 mmHg 75%
    10:00 +8°C° 0.2 mm 3 mps 753 mmHg 72%
    11:00 +9°C° 0.2 mm 3 mps 753 mmHg 70%
    12:00 +9°C° 0.2 mm 3 mps 752 mmHg 67%
    13:00 +9°C° 0.5 mm 3 mps 752 mmHg 73%
    14:00 +9°C° 0.5 mm 3 mps 751 mmHg 80%
    15:00 +8°C° 0.5 mm 2 mps 750 mmHg 86%
    16:00 +8°C° 0.8 mm 2 mps 749 mmHg 89%
    17:00 +8°C° 0.8 mm 2 mps 748 mmHg 92%
    18:00 +8°C° 0.8 mm 2 mps 747 mmHg 94%
    19:00 +8°C° 0.3 mm 2 mps 747 mmHg 93%
    20:00 +8°C° 0.3 mm 3 mps 746 mmHg 91%
    21:00 +8°C° 0.3 mm 3 mps 746 mmHg 90%
    22:00 +7°C° 0.1 mm 3 mps 745 mmHg 91%
    23:00 +5°C° 0.1 mm 3 mps 745 mmHg 92%
    Show more